Regional Weather Roundup
Issued by NWS Albany, NY

Home | Current Version | Previous Version | Graphics & Text | Print | Product List | Glossary Off
Versions: 1 2 3 4 5 6 7 8 9 10 11 12 13 14 15 16 17 18 19 20 21 22 23 24 25 26 27 28 29 30 31 32 33 34 35 36 37 38 39 40 41 42 43 44 45 46 47 48

000
ASUS41 KALY 212210
RWRALY

NEW YORK STATE HOURLY WEATHER ROUNDUP
NATIONAL WEATHER SERVICE ALBANY NY
500 PM EST SUN DEC 21 2014

NOTE: "FAIR" INDICATES FEW OR NO CLOUDS BELOW 12,000 FEET WITH NO
SIGNIFICANT WEATHER AND/OR NO OBSTRUCTIONS TO VISIBILITY.

NYZ032-033-038>043-046>054-057>066-NYZ062>081-212300-
EAST


CITY           SKY/WX    TMP DP  RH WIND       PRES   REMARKS
ALBANY         CLOUDY    31  23  72 CALM      30.34R
GLENS FALLS    CLOUDY    28  22  78 NE3       30.33R
POUGHKEEPSIE   CLOUDY    33  26  75 N6        30.32R WCI  28
NEWBURGH       CLOUDY    32  28  86 VRB5      30.31  FOG     WCI  27
MONTGOMERY     CLOUDY    32  27  81 NE6       30.29R WCI  26
WHITE PLAINS   LGT SNOW  32  29  88 N8        30.27S FOG     WCI  25
ISLIP          CLOUDY    36  32  85 N7        30.28R FOG     WCI  30
NEW YORK CITY  CLOUDY    36  28  73 N7        30.30S WCI  30
CENTRAL PARK   CLOUDY    35  26  69 N8        30.31S WCI  29
$$

NYZ005>009-017-018-044>046-055-056-212300-
CENTRAL


CITY           SKY/WX    TMP DP  RH WIND       PRES   REMARKS
FULTON         CLOUDY    31  25  78 CALM      30.32R
SYRACUSE       FLURRIES  31  26  82 CALM      30.32R
ROME           CLOUDY    31  24  75 CALM      30.34R
ELMIRA         CLOUDY    31  22  69 SW5       30.28S WCI  26
BINGHAMTON     CLOUDY    27  20  75 W6        30.24R WCI  20
MONTICELLO     CLOUDY    28  25  86 W6        30.25S WCI  22
$$

NYZ026>034-041>043-212300-
NORTH


CITY           SKY/WX    TMP DP  RH WIND       PRES   REMARKS
WATERTOWN      MOCLDY    30  21  69 NE3       30.32R
FORT DRUM      NOT AVBL
MASSENA        CLOUDY    21  16  81 NE7       30.36S WCI  12
SARANAC LAKE   CLOUDY    23  20  88 CALM      30.23R
PLATTSBURGH    CLOUDY    20  17  88 N7        30.36S WCI  11
$$

NYZ001>004-010>016-019>021-212300-
WEST


CITY           SKY/WX    TMP DP  RH WIND       PRES   REMARKS
NIAGARA FALLS  CLOUDY    32  21  64 SW6       30.29R WCI  26
BUFFALO        CLOUDY    32  21  64 SW5       30.29R WCI  27
DUNKIRK        CLOUDY    32  22  66 CALM      30.29R
JAMESTOWN      CLOUDY    27  19  74 E3        30.22S
WELLSVILLE     CLOUDY    26  22  84 SE3       30.22R
ROCHESTER      CLOUDY    33  22  63 SW5       30.30R WCI  29
PENN YAN       CLOUDY    32  21  64 W3        30.28S
$$

             KEY
       WCI = WIND CHILL INDEX
       VSB = VISIBILITY
       HX  = HEAT INDEX
$$


USA.gov is the U.S. government's official web portal to all federal, state and local government web resources and services.